Waseca, MN

11:41 AM CST on February 13, 2016 (GMT -0600)
Waseca Municipal

Weather History for KACQ - October, 2013

Change the Weather History Date:

Saturday, October 19, 2013

  Actual Average Record
Temperature  
Mean Temperature 39 °F -  
Max Temperature 46 °F 53 °F 87 °F (2003)
Min Temperature 30 °F 32 °F 13 °F (1972)
Degree Days  
Heating Degree Days 26    
Moisture  
Dew Point 33 °F    
Average Humidity 83    
Maximum Humidity 93    
Minimum Humidity 57    
Precipitation  
Precipitation 0.01 in - - ()
Sea Level Pressure  
Sea Level Pressure 29.80 in    
Wind  
Wind Speed 7 mph (WSW)    
Max Wind Speed 21 mph    
Max Gust Speed 30 mph    
Visibility 10 miles    
Events      
Averages and records for this station are not official NWS values.
T = Trace of Precipitation, MM = Missing Value Source: NWS Daily Summary

Daily Weather History Graph

Daily Weather History Graph

Search for Another Location

Airport or City:

Trip Planner

Search our weather history database for the weather conditions in past years. The results will help you decide how hot, cold, wet, or windy it might be!

Date:

Astronomy

Oct. 19, 2013 Rise Set
Actual Time 7:34 AM CDT 6:23 PM CDT
Civil Twilight 7:04 AM CDT 6:52 PM CDT
Nautical Twilight 6:31 AM CDT 7:26 PM CDT
Astronomical Twilight 5:57 AM CDT 7:59 PM CDT
Moon 6:48 PM CDT (10/19) 8:14 AM CDT (10/19)
Length of Visible Light 11h 47m
Length of Day
10h 49m
Waxing Gibbous, 99% of the Moon is Illuminated
Oct 19
Waxing Gibbous
Oct 26
Last Quarter
Nov 3
New
Nov 9
First Quarter
Nov 17
Full

Hourly Weather History & Observations

Time (CDT) Temp. Windchill Dew Point Humidity Pressure Visibility Wind Dir Wind Speed Gust Speed Precip Events Conditions
12:13 AM 37.4 °F 34.9 °F 33.8 °F 87% 29.88 in 10.0 mi SW 3.5 mph - N/A   Overcast
12:33 AM 37.4 °F 34.9 °F 33.8 °F 87% 29.86 in 10.0 mi SSW 3.5 mph - N/A   Overcast
12:53 AM 37.4 °F 33.8 °F 33.8 °F 87% 29.86 in 10.0 mi SSW 4.6 mph - N/A   Overcast
1:13 AM 37.4 °F 32.8 °F 33.8 °F 87% 29.86 in 10.0 mi SSW 5.8 mph - N/A   Overcast
1:33 AM 37.4 °F 32.8 °F 33.8 °F 87% 29.86 in 10.0 mi SW 5.8 mph - N/A   Mostly Cloudy
1:53 AM 37.4 °F 32.8 °F 33.8 °F 87% 29.86 in 10.0 mi SW 5.8 mph - N/A   Scattered Clouds
2:13 AM 37.4 °F 32.8 °F 33.8 °F 87% 29.85 in 10.0 mi SW 5.8 mph - N/A   Clear
2:33 AM 37.4 °F 33.8 °F 33.8 °F 87% 29.85 in 10.0 mi SW 4.6 mph - N/A   Scattered Clouds
2:53 AM 37.4 °F 32.8 °F 35.6 °F 93% 29.84 in 10.0 mi SW 5.8 mph - N/A   Mostly Cloudy
3:13 AM 37.4 °F 33.8 °F 35.6 °F 93% 29.83 in 10.0 mi SW 4.6 mph - N/A   Mostly Cloudy
3:33 AM 35.6 °F 30.7 °F 32.0 °F 87% 29.82 in 10.0 mi SW 5.8 mph - N/A   Scattered Clouds
3:53 AM 33.8 °F 30.8 °F 32.0 °F 93% 29.82 in 10.0 mi SW 3.5 mph - N/A   Clear
4:13 AM 33.8 °F 28.6 °F 32.0 °F 93% 29.81 in 10.0 mi SSW 5.8 mph - N/A   Clear
4:33 AM 33.8 °F 28.6 °F 32.0 °F 93% 29.81 in 10.0 mi SSW 5.8 mph - N/A   Clear
4:53 AM 33.8 °F 27.0 °F 32.0 °F 93% 29.80 in 10.0 mi SSW 8.1 mph - N/A   Clear
5:13 AM 33.8 °F 28.6 °F 32.0 °F 93% 29.79 in 10.0 mi SSW 5.8 mph - N/A   Clear
5:33 AM 33.8 °F 27.7 °F 32.0 °F 93% 29.79 in 10.0 mi SSW 6.9 mph - N/A   Clear
5:53 AM 33.8 °F 27.7 °F 32.0 °F 93% 29.78 in 10.0 mi SSW 6.9 mph - N/A   Scattered Clouds
6:13 AM 33.8 °F 27.7 °F 32.0 °F 93% 29.78 in 10.0 mi SSW 6.9 mph - N/A   Scattered Clouds
6:33 AM 33.8 °F 27.7 °F 32.0 °F 93% 29.78 in 10.0 mi SSW 6.9 mph - N/A   Clear
6:53 AM 33.8 °F 26.4 °F 32.0 °F 93% 29.78 in 10.0 mi SSW 9.2 mph - N/A   Clear
7:13 AM 33.8 °F 27.0 °F 32.0 °F 93% 29.78 in 10.0 mi SSW 8.1 mph - N/A   Clear
7:33 AM 33.8 °F 27.0 °F 32.0 °F 93% 29.77 in 10.0 mi SSW 8.1 mph - N/A   Scattered Clouds
7:53 AM 33.8 °F 27.0 °F 32.0 °F 93% 29.77 in 10.0 mi SW 8.1 mph - N/A   Scattered Clouds
9:13 AM 37.4 °F 30.8 °F 35.6 °F 93% 29.77 in 10.0 mi SW 9.2 mph - N/A   Overcast
9:33 AM 37.4 °F 31.4 °F 35.6 °F 93% 29.76 in 10.0 mi SW 8.1 mph - N/A   Overcast
9:53 AM 37.4 °F 30.8 °F 35.6 °F 93% 29.76 in 10.0 mi SW 9.2 mph - N/A   Overcast
10:13 AM 41.0 °F 34.7 °F 37.4 °F 87% 29.76 in 10.0 mi SW 10.4 mph - N/A   Overcast
10:33 AM 41.0 °F 34.3 °F 37.4 °F 87% 29.76 in 10.0 mi WSW 11.5 mph - N/A   Overcast
10:54 AM 42.8 °F 36.2 °F 39.2 °F 87% 29.75 in 10.0 mi WSW 12.7 mph - N/A   Overcast
11:13 AM 42.8 °F 36.2 °F 39.2 °F 87% 29.76 in 10.0 mi WSW 12.7 mph - N/A   Overcast
11:33 AM 42.8 °F 37.5 °F 37.4 °F 81% 29.75 in 10.0 mi WSW 9.2 mph - N/A   Overcast
11:53 AM 42.8 °F 37.0 °F 37.4 °F 81% 29.75 in 10.0 mi WSW 10.4 mph - N/A   Overcast
12:14 PM 44.6 °F 39.2 °F 39.2 °F 81% 29.74 in 10.0 mi WSW 10.4 mph - N/A   Overcast
12:33 PM 44.6 °F 38.4 °F 39.2 °F 81% 29.74 in 10.0 mi WSW 12.7 mph 18.4 mph N/A   Overcast
12:53 PM 42.8 °F 35.4 °F 37.4 °F 81% 29.74 in 4.0 mi WSW 15.0 mph 19.6 mph 0.01 in   Drizzle
1:13 PM 42.8 °F 36.2 °F 39.2 °F 87% 29.74 in 10.0 mi WNW 12.7 mph - N/A   Overcast
1:33 PM 44.6 °F 39.7 °F 39.2 °F 81% 29.73 in 10.0 mi West 9.2 mph - N/A   Mostly Cloudy
1:54 PM 44.6 °F 36.4 °F 37.4 °F 76% 29.74 in 10.0 mi WNW 20.7 mph 29.9 mph N/A   Drizzle
2:13 PM 41.0 °F 35.8 °F 35.6 °F 81% 29.73 in 10.0 mi West 8.1 mph - N/A   Overcast
2:33 PM 44.6 °F 38.8 °F 39.2 °F 81% 29.74 in 10.0 mi West 11.5 mph - N/A   Mostly Cloudy
2:54 PM 44.6 °F 38.8 °F 37.4 °F 76% 29.74 in 10.0 mi West 11.5 mph - N/A   Scattered Clouds
3:13 PM 46.4 °F 40.1 °F 35.6 °F 66% 29.74 in 10.0 mi WNW 15.0 mph 21.9 mph N/A   Scattered Clouds
3:33 PM 46.4 °F 39.5 °F 33.8 °F 62% 29.74 in 10.0 mi WNW 17.3 mph 20.7 mph N/A   Mostly Cloudy
3:53 PM 46.4 °F 39.0 °F 33.8 °F 62% 29.75 in 10.0 mi WNW 19.6 mph 25.3 mph N/A   Scattered Clouds
4:13 PM 44.6 °F 37.2 °F 32.0 °F 61% 29.76 in 10.0 mi WNW 17.3 mph 23.0 mph N/A   Scattered Clouds
4:33 PM 44.6 °F 37.2 °F 30.2 °F 57% 29.77 in 10.0 mi WNW 17.3 mph 24.2 mph N/A   Scattered Clouds
4:53 PM 42.8 °F 35.1 °F 30.2 °F 61% 29.78 in 10.0 mi WNW 16.1 mph 25.3 mph N/A   Scattered Clouds
5:14 PM 42.8 °F 34.0 °F 28.4 °F 57% 29.79 in 10.0 mi WNW 20.7 mph 24.2 mph N/A   Scattered Clouds
5:33 PM 42.8 °F 35.4 °F 28.4 °F 57% 29.79 in 10.0 mi WNW 15.0 mph 19.6 mph N/A   Clear
5:53 PM 41.0 °F 33.5 °F 28.4 °F 61% 29.80 in 10.0 mi West 13.8 mph - N/A   Clear
6:14 PM 41.0 °F 34.3 °F 28.4 °F 61% 29.80 in 10.0 mi West 11.5 mph - N/A   Clear
6:34 PM 37.4 °F 30.8 °F 28.4 °F 70% 29.81 in 10.0 mi West 9.2 mph - N/A   Clear
6:54 PM 37.4 °F 31.4 °F 30.2 °F 75% 29.81 in 10.0 mi West 8.1 mph - N/A   Clear
7:14 PM 37.4 °F 31.4 °F 30.2 °F 75% 29.82 in 10.0 mi West 8.1 mph - N/A   Clear
7:33 PM 35.6 °F 28.6 °F 30.2 °F 81% 29.82 in 10.0 mi West 9.2 mph - N/A   Clear
7:53 PM 35.6 °F 29.2 °F 30.2 °F 81% 29.82 in 10.0 mi West 8.1 mph - N/A   Clear
8:14 PM 35.6 °F 29.9 °F 30.2 °F 81% 29.83 in 10.0 mi WNW 6.9 mph - N/A   Clear
8:33 PM 33.8 °F 28.6 °F 28.4 °F 81% 29.83 in 10.0 mi West 5.8 mph - N/A   Clear
8:54 PM 33.8 °F 27.7 °F 28.4 °F 81% 29.83 in 10.0 mi West 6.9 mph - N/A   Clear
9:14 PM 32.0 °F 26.4 °F 28.4 °F 87% 29.83 in 10.0 mi West 5.8 mph - N/A   Clear
9:33 PM 32.0 °F 26.4 °F 28.4 °F 87% 29.84 in 10.0 mi West 5.8 mph - N/A   Clear
9:54 PM 32.0 °F 28.7 °F 28.4 °F 87% 29.84 in 10.0 mi WNW 3.5 mph - N/A   Clear
10:13 PM 32.0 °F 28.7 °F 28.4 °F 87% 29.84 in 10.0 mi SSW 3.5 mph - N/A   Clear
10:33 PM 32.0 °F - 28.4 °F 87% 29.84 in 10.0 mi Calm Calm - N/A   Clear
10:53 PM 32.0 °F - 28.4 °F 87% 29.84 in 10.0 mi Calm Calm - N/A   Clear
11:13 PM 32.0 °F - 28.4 °F 87% 29.84 in 10.0 mi Calm Calm - N/A   Clear
11:33 PM 32.0 °F - 28.4 °F 87% 29.83 in 10.0 mi Calm Calm - N/A   Clear
11:53 PM 30.2 °F - 28.4 °F 93% 29.82 in 10.0 mi Calm Calm - N/A   Clear